Tracking 18794 objects as of 23-September-2017
HD Live streaming from Space Station
objects crossing your sky now

METEOSAT 5 AKM

Track METEOSAT 5 AKM now!


NORAD ID: 21904
Int'l Code: 1991-015E
Perigee: 35,164.6 km
Apogee: 36,499.9 km
Inclination: 14.5 °
Period: 1,438.1 minutes
Semi major axis: 42203 km
RCS: 0.9471 m2 (medium)
Launch date: March 2, 1991
Source: European Space Agency (ESA)
Launch site: FRENCH GUIANA (FRGUI)

Note: This is a ROCKET BODY
aabbcc
Your satellite tracking list
Your tracking list is empty





NASA's NSSDC Master Catalog

Two Line Element Set (TLE):
1 21904U 91015E   17265.24312705 -.00000389 +00000-0 +00000-0 0  9998
2 21904 014.4664 004.2396 0158189 152.4658 227.9433 01.00134565084423
Source of the keplerian elements: AFSPC